{"data":{"norad_id":57952,"epoch":"2026-05-24T23:18:00.684000Z","epoch_age_seconds":87768,"freshness":"FRESH","line1":"1 57952U 23148T   26144.97084125  .00006549  00000+0  23298-3 0  9999","line2":"2 57952  53.1593  29.8028 0001251  89.8001 270.3143 15.30208831150108","mean_motion":15.30208831,"eccentricity":0.0001251,"inclination_deg":53.1593,"raan_deg":29.8028,"arg_perigee_deg":89.8001,"mean_anomaly_deg":270.3143,"bstar":0.00023298,"rev_number":15010,"period_min":94.104802614356,"perigee_km":474.33135072664,"apogee_km":476.04605281722,"semimajor_km":6853.3257017719,"source":"CELESTRAK","updated_at":"2026-05-25T13:38:18.463667Z"}}